www.pogodaiklimat.ru

Погода и климат >> Архив погоды >> Южная Африка >> Скукуза


ПОГОДА в Скукузе

  • Прогноз погоды в Скукузе
  • Монитор погоды в Скукузе

АРХИВ ПОГОДЫ в Скукузе

Время (UTC), дата Ветер
(напр.,м/с)
 
Видим.   Явления Облачность Т
(С)
Тd
(С)
f
(%)
Тe
(С)
Тes
(С)
Комфортность P
(гПа)
Po
(гПа)
Тmin
(С)
Tmax
(С)
R
(мм)
R24
(мм)
S
(см)
12 11.06 Ю 1 н/о н/о +27.5 +7.6 28 +27 +27 жарко 990.8 -0.6 +28.6
15 11.06 В 1 н/о н/о +23.3 +8.7 39 +25 +25 комфорт 990.6 +23.3 +29.1
18 11.06 З 1 н/о н/о +9.5 +4.5 71 +9 +9 991.7 +9.5 +29.1
06 12.06 штиль 0 н/о н/о +10.2 +4.1 66 +10 +10 991.7 +1.4
09 12.06 СЗ 3 н/о н/о +26.6 +9.2 33 +27 +27 жарко 989.8 +1.4 +26.6
12 12.06 СЗ 2 н/о н/о +29.6 +4.6 20 +28 +28 жарко 986.4 +1.4 +29.8
15 12.06 СВ 2 н/о н/о +25.2 +4.0 25 +24 +24 комфорт 985.7 +25.2 +30.7
18 12.06 В 1 н/о н/о +10.2 +2.5 59 +10 +10 986.8 +10.2 +30.7
21 12.06 Ю 1 н/о н/о +5.2 -0.0 69 +4 +4 987.8 +5.2 +30.7
06 13.06 Ю 2 н/о н/о +17.0 +8.2 56 +17 +17 992.9 +0.7
09 13.06 Ю 5 н/о н/о +22.0 +9.6 45 +24 +24 комфорт 994.4 +0.7 +22.3
12 13.06 ЮЗ 6 н/о н/о +22.5 +9.1 42 +24 +24 комфорт 993.8 +0.7 +23.1
15 13.06 Ю 3 н/о н/о +17.8 +7.0 49 +18 +18 995.9 +17.8 +23.1
18 13.06 Ю 3 н/о н/о +14.1 +5.7 57 +13 +13 998.5 +14.1 +23.1
21 13.06 ЮЗ 2 н/о н/о +11.3 +4.5 63 +11 +11 999.9 +11.1 +23.1
00 14.06 З 1 н/о н/о +9.1 +4.3 72 +9 +9 999.0 +9.1 +23.1
09 14.06 Ю 4 н/о н/о +18.8 +5.7 42 +19 +19 999.8 +2.2 +19.1
12 14.06 ЮВ 2 н/о н/о +21.0 +5.9 37 +23 +23 комфорт 996.4 +2.2 +22.1
15 14.06 ЮВ 1 н/о н/о +18.4 +5.7 43 +20 +20 995.9 +18.4 +22.7
18 14.06 штиль 0 н/о н/о +6.3 +2.2 75 +6 +6 997.7 +6.3 +22.7
21 14.06 З 1 н/о н/о +3.3 +0.8 84 +2 +2 998.4 +3.1 +22.7
00 15.06 СЗ 1 н/о н/о +2.7 +0.7 87 +1 +1 997.2 +1.6 +22.7
03 15.06 штиль 0 н/о н/о +2.3 +0.2 86 +1 +1 996.1 +1.6 +22.7
06 15.06 штиль 0 н/о н/о +7.0 +3.8 80 +6 +6 997.4 +1.6
09 15.06 С 2 н/о н/о +18.7 +5.6 42 +20 +20 996.5 +1.6 +19.9
12 15.06 СВ 2 н/о н/о +23.4 +3.5 27 +23 +23 комфорт 993.0 +1.6 +23.7
15 15.06 СЗ 2 н/о н/о +20.0 +4.6 36 +21 +21 комфорт 992.4 +20.0 +24.3
18 15.06 штиль 0 н/о н/о +4.7 -0.0 72 +4 +4 993.7 +4.7 +24.3
21 15.06 СЗ 1 н/о н/о +0.7 -2.1 82 -1 -1 994.2 +0.7 +24.3
00 16.06 З 1 н/о н/о -1.6 -3.9 84 -4 -4 993.0 -1.9 +24.3
03 16.06 З 1 н/о н/о -3.7 -5.5 87 -6 -6 992.8 -3.7 +24.3
06 16.06 З 1 н/о н/о +2.0 -1.6 77 0 0 993.7 -4.5
09 16.06 С 2 н/о н/о +22.2 +4.9 32 +22 +22 комфорт 993.8 -4.5 +22.2
12 16.06 Ю 1 н/о н/о +26.7 +2.8 21 +25 +25 комфорт 991.3 -4.5 +28.0
15 16.06 В 1 н/о н/о +22.8 +3.5 28 +23 +23 комфорт 991.7 +22.8 +28.0
18 16.06 З 1 н/о н/о +6.1 -0.1 64 +5 +5 994.2 +6.1 +28.0
21 16.06 ЮЗ 1 н/о н/о +1.9 -2.0 75 0 0 995.6 +1.9 +28.0
00 17.06 З 1 н/о н/о -0.4 -3.5 80 -2 -2 995.2 -0.5 +28.0
03 17.06 СЗ 1 н/о н/о +2.0 -1.0 80 0 0 995.4 -0.5 +28.0
06 17.06 штиль 0 н/о н/о +9.8 +3.5 65 +9 +9 996.4 -0.5
09 17.06 СВ 3 н/о н/о +21.5 +10.1 48 +23 +23 комфорт 995.8 -0.5 +22.0
12 17.06 С 2 н/о н/о +25.7 +7.0 30 +26 +26 жарко 992.2 -0.5 +26.5
15 17.06 С 1 н/о н/о +22.4 +7.1 37 +23 +23 комфорт 991.3 +22.4 +26.8
18 17.06 штиль 0 н/о н/о +7.5 +2.8 72 +7 +7 992.4 +7.5 +26.8
21 17.06 ЮЗ 1 н/о н/о +3.1 +0.1 81 +2 +2 993.0 +3.1 +26.8
00 18.06 СЗ 1 н/о н/о +0.9 -1.3 85 -1 -1 992.4 +0.9 +26.8
03 18.06 Ю 1 н/о н/о -1.7 -3.5 87 -4 -4 992.3 -1.7 +26.8
06 18.06 СЗ 1 н/о н/о +2.3 -0.9 79 +1 +1 994.1 -2.6
09 18.06 Ю 3 н/о н/о +22.3 +2.6 27 +22 +22 комфорт 994.7 -2.6 +22.5

 

Местоположение метеостанции Скукуза (Южная Африка): широта -24.98 долгота 31.60 высота над уровнем моря 271 м.

В архиве по умолчанию представлена погода в Скукузе за последнюю неделю. Архивные данные за месяц целиком и за предыдущие месяцы, начиная с января 2011 года, Вы можете получить, выбрав интересующий диапазон дат из раскрывающегося списка и нажав кнопку "Ввод!".


*Определитесь, кто Вы:
робот инопланетянин человек

Внимание! Время в таблицах - всемирное. Для получения местного времени необходимо прибавить поправку, которая равна 2 ч.

Смотрите также архив погоды в соседних городах и на ближайших метеорологических станциях:

Погода в Коматидрааи (Южная Африка) (66 км)
Погода в Граскопе (Южная Африка) (76 км)
Погода в Граскоп-Скуле (Южная Африка) (78 км)
Погода на Базе ВВС Hoedspruit (Южная Африка) (89 км)
Погода в Хоэдспруите (Южная Африка) (89 км)
Погода в Мбомбеле (Южная Африка) (90 км)
Погода в Вувулане (Свазиленд) (100 км)
Погода в Майиване (Свазиленд) (102 км)
Погода в Линденбурге (Южная Африка) (114 км)
Погода в Линденбурге 2 (Южная Африка) (115 км)

Пояснения к столбцам:

Ветер - указаны скорость ветра в м/с - средняя за 10 мин, порывы в срок и между сроками (в фигурных скобках) и направление, откуда дует ветер: С - северный, СВ - северо-восточный, В - восточный, ЮВ - юго-восточный, Ю - южный, ЮЗ - юго-западный, З - западный, СЗ - северо-западный.
Видимость - горизонтальная дальность видимости в метрах или километрах. При видимости от 1 до 10 км при отсутствии осадков обычно наблюдается дымка, при ухудшении видимости до 1 км и менее - туман. В сухую погоду видимость может ухудшаться дымом, пылью или мглою.
Явления - указаны атмосферные явления, наблюдавшиеся в срок или в последний час перед сроком; фигурными скобками обозначены явления, наблюдавшиеся между сроками (за 1-3 часа до срока); квадратными скобками обозначены град или гололедные отложения с указанием их диаметра в мм.
Облачность - указаны через наклонную черту общая и нижняя облачность в баллах и высота нижней границы облаков в метрах; квадратными скобками обозначены формы облаков: Ci - перистые, Cs - перисто-слоистые, Cc - перисто-кучевые, Ac - высококучевые, As - высокослоистые, Sc - слоисто-кучевые, Ns - слоисто-дождевые, Cu - кучевые, Cb - кучево-дождевые. Подробнее классификацию облаков см. в Атласе облаков (PDF).
T - Температура воздуха - температура, измеренная на высоте 2 м над землей.
Td - Температура точки росы - температура, при понижении до которой содержащийся в воздухе водяной пар достигнет насыщения.
f - Относительная влажность воздуха - влажноcть воздуха, измеренная на высоте 2 м над землей.
Te - Эффективная температура - температура, которую ощущает одетый по сезону человек в тени. Характеристика душности погоды. При расчете учитывается влияние влажности воздуха и скорости ветра на теплоощущения человека.
Tes - Эффективная температура на солнце - температура, которую ощущает человек, с поправкой на солнечный нагрев. Характеристика знойности погоды. Зависит от высоты солнца над горизонтом, облачности и скорости ветра. Ночью, в пасмурную погоду, а также при ветре 12 м/с и более поправка равна нулю.
P - Атмосферное давление - приведенное к уровню моря атмосферное давление.
Po - Атмосферное давление - измеренное на уровне метеостанции атмосферное давление.
Tmin - Минимальная температура - минимум температуры воздуха на высоте 2 м над землей.
Tmax - Максимальная температура - максимум температуры воздуха на высоте 2 м над землей.
R - Количество осадков - Количество выпавших осадков за период времени, мм. При наведении курсора мыши на число - период времени, за который выпало указанное количество осадков.
R24 - Количество осадков - Количество выпавших осадков за 24 часа, мм.
S - Снежный покров - Высота снежного покрова, см. При наведении курсора мыши на число - состояние снежного покрова и степень покрытия местности в баллах.